ONEWEB-0389

operational
NORAD ID: 50469 Int'l Des: 2021-132 Owner: ONEWEBN Country: UK Constellation: oneweb
LEOCIRCULARPOLARONEWEB_TYPE

About ONEWEB-0389

Description loading...

Live Position

Loading 3D Globe...

Upcoming Passes

Altitude History

Altitude vs Time

uPlot chart will show altitude changes over time

Two-Line Element Set

1 50469U 21132A 25250.18462184 .00000030 00000-0 43753-4 0 9990
2 50469 87.9040 62.1675 0002105 92.6674 267.4698 13.17650275180810
Epoch: Sep 7, 2025 • Age: 16 hours

Current Status

Altitude 1223.5 km
Velocity 7.24 km/s
Sub-Earth Point -80.22°S, 116.3°E
Launch Date Dec 27, 2021
Age 3.6 years
Type internet

Technical Details

Classification Payload
Mass 148.00 kg
Dry Mass 140.00 kg
Total Mass 148.00 kg
Length 1.30 m
Diameter 1.00 m
Span 5.00 m
Shape Trapezoid+2 pan
Manufacturer ONEWUS
Bus Type ARROW
Phase Status In Orbit
Owner/State ONEWEBN/UK

Large Constellations

Loading constellations...